sat.trackr.live / text

‹ back to catalog

STARLINK-35722

NORAD 66218 · 2025-244N

PAYLOAD ACTIVE UNKNOWN

§ Identity

Operator
Country
US
Launch date
2025-10-28
Launch site
AFWTR
Launch vehicle
Mass (kg)
RCS (m²)

Purposes: comms

External: N2YO · Heavens-Above · Gunter

§ Orbital elements

Epoch: 2026-05-24T16:00:27.173088Z

Period
94.11 min
Inclination
53.1580°
Eccentricity
0.0001169
Mean motion
15.30190804 rev/d
Perigee alt
474.4 km
Apogee alt
476.0 km
Semi-major
6,853.4 km
B*
7.8055e-4
RAAN
236.8857°
Arg perigee
79.5428°
Mean anomaly
280.5704°
Rev number
3,329

§ Raw data

STARLINK-357221 66218U 25244N   26144.66698117  .00022823  00000+0  78055-3 0  99952 66218  53.1580 236.8857 0001169  79.5428 280.5704 15.30190804 33292

JSON: /api/v1/satellites/66218 · /tle

For live sub-satellite position, see the globe view (requires WebGL).

§ Visibility from observer

Set your observer location to see the next 7 days of passes ≥ 10°. The values pass through the URL so the page stays shareable.

No JS? Fill the form by hand. The geolocation button needs JavaScript.